Location: Dreilärchen
(47.9312°N, 8.6113°E)
Time: 22:49:27
(UTC+00:00)

Cosmos 2369 Rocket - Pass Details

Date: 26 May 2022
Orbit: 830 x 851 km, 71.0° (Epoch: 02 July)

Event Time Altitude Azimuth Distance (km) Brightness Sun altitude
Rises 01:50:20 0° 332° (NNW) 3,386 5.7 -13.4°
Reaches altitude 10° 01:52:48 10° 334° (NNW) 2,447 5.0 -13.2°
Maximum altitude 01:58:25 80° 62° (ENE) 849 2.3 -12.6°
Drops below altitude 10° 02:04:00 10° 149° (SSE) 2,432 4.4 -12.1°
Sets 02:06:26 0° 151° (SSE) 3,363 5.1 -11.8°
